Location: Newark
(39.9500°N, 8.6833°E)
Time: 21:45:57
(UTC+00:00)

ISS - Visible Passes

Search period start: 09 December 2019 00:00
Search period end: 19 December 2019 00:00
Orbit: 411 x 421 km, 51.6° (Epoch: 10 December)

Date Brightness Start Highest point End Pass type
(mag) Time Alt. Az. Time Alt. Az. Time Alt. Az.
09 Dec -3.0 16:38:57 10° NW 16:42:03 33° NNE 16:45:08 10° E visible
09 Dec -1.8 18:15:46 10° WNW 18:18:22 28° WSW 18:18:22 28° WSW visible
10 Dec -3.0 17:27:04 10° WNW 17:30:21 53° SW 17:33:05 14° SSE visible
11 Dec -3.8 16:38:33 10° NW 16:41:55 84° NE 16:45:16 10° SE visible
11 Dec -0.3 18:17:52 10° WSW 18:18:09 10° SW 18:18:28 10° SW visible
12 Dec -0.8 17:27:30 10° W 17:29:52 18° SW 17:32:15 10° S visible
13 Dec -1.7 16:38:30 10° WNW 16:41:31 31° SW 16:44:32 10° SSE visible
15 Dec 0.0 16:39:52 10° WSW 16:40:53 11° SW 16:41:53 10° SW visible
18 Dec 0.0 06:08:33 10° SSE 06:09:39 11° SE 06:10:45 10° ESE visible
